Retour au catalogue

STARLINK-32503

ActifCommunicationsVLEO
NORAD 62157·PAYLOAD·🇺🇸 United States

Lancé Nov 30, 2024 depuis Cape Canaveral Space Force Station

Loading…

Prochains Passages (prochaines 24 heures)

TLE

FraisSource: CelesTrak SupGP

Époque: Sep 14, 2026, 21:38 UTC

1 62157C 24224U   26257.90187500 -.00034646  00000+0 -12545-2 0  2577
2 62157  43.0008 176.9617 0001334 266.9314  21.7560 15.27604854    11

Suivez STARLINK-32503 en temps réel avec AllMySat

Download on the App Store